QPF
0.00 0.00 0.00 0.00 0.00 0.00 0.00 0.00 0.00 0.00 0.00 0.00 0.00 0.00 0.00 0.00 0.00 0.00 0.00 0.00 0.00 0.00 0.00 0.01 0.01 0.01 0.01 0.01 0.01 0.00 0.00 0.00 0.00 0.00 0.00 0.00 0.00 0.00 0.00 0.00 0.01 0.00 0.00
0.00 0.00 0.00 0.00 0.00 0.00 0.00 0.00 0.00 0.00 0.00 0.00 0.00 0.00 0.00 0.00 0.00 0.00 0.00 0.00 0.00 0.00 0.00 0.00 0.01 0.01 0.01 0.01 0.00 0.00 0.00 0.00 0.00 0.00 0.00 0.00 0.00 0.00 0.00 0.00 0.02 0.01 0.00
0.00 0.00 0.00 0.00 0.00 0.00 0.00 0.00 0.00 0.00 0.00 0.00 0.00 0.00 0.00 0.00 0.00 0.00 0.00 0.00 0.00 0.00 0.00 0.00 0.01 0.01 0.01 0.01 0.00 0.00 0.00 0.00 0.00 0.00 0.02 0.03 0.00 0.00 0.00 0.00 0.01 0.01 0.00
0.00 0.00 0.00 0.00 0.00 0.00 0.00 0.00 0.00 0.00 0.00 0.00 0.00 0.00 0.00 0.00 0.00 0.00 0.00 0.00 0.00 0.00 0.00 0.00 0.00 0.00 0.01 0.01 0.01 0.00 0.00 0.00 0.01 0.03 0.08 0.05 0.01 0.00 0.00 0.00 0.01 0.00 0.00
0.01 0.00 0.00 0.00 0.00 0.00 0.00 0.00 0.00 0.00 0.00 0.00 0.00 0.00 0.00 0.00 0.00 0.00 0.00 0.00 0.00 0.00 0.00 0.00 0.00 0.00 0.00 0.01 0.01 0.00 0.00 0.00 0.01 0.04 0.06 0.04 0.03 0.01 0.00 0.00 0.01 0.00 0.00
0.01 0.01 0.00 0.00 0.00 0.00 0.00 0.00 0.00 0.00 0.01 0.01 0.00 0.01 0.00 0.00 0.00 0.00 0.00 0.00 0.00 0.00 0.00 0.00 0.00 0.00 0.00 0.00 0.00 0.00 0.00 0.01 0.02 0.03 0.03 0.04 0.04 0.01 0.00 0.00 0.01 0.01 0.01
0.01 0.01 0.00 0.00 0.00 0.00 0.00 0.00 0.00 0.00 0.01 0.00 0.01 0.01 0.01 0.00 0.00 0.00 0.00 0.00 0.00 0.00 0.00 0.00 0.00 0.00 0.00 0.00 0.00 0.00 0.00 0.01 0.03 0.03 0.02 0.03 0.05 0.01 0.00 0.00 0.01 0.01 0.01
0.00 0.01 0.00 0.00 0.00 0.00 0.00 0.00 0.00 0.00 0.01 0.01 0.01 0.01 0.01 0.00 0.00 0.00 0.00 0.00 0.00 0.00 0.00 0.00 0.00 0.00 0.00 0.00 0.00 0.00 0.00 0.01 0.01 0.02 0.02 0.04 0.03 0.01 0.01 0.00 0.01 0.01 0.01
0.00 0.01 0.01 0.01 0.01 0.00 0.00 0.00 0.00 0.01 0.01 0.01 0.01 0.01 0.01 0.00 0.00 0.00 0.00 0.01 0.00 0.00 0.00 0.00 0.00 0.00 0.00 0.00 0.01 0.00 0.00 0.00 0.01 0.02 0.03 0.04 0.02 0.01 0.01 0.01 0.02 0.02 0.01
0.02 0.02 0.03 0.02 0.00 0.00 0.00 0.00 0.00 0.01 0.01 0.01 0.01 0.01 0.01 0.01 0.00 0.00 0.00 0.01 0.00 0.00 0.00 0.00 0.00 0.00 0.00 0.00 0.00 0.00 0.00 0.00 0.02 0.03 0.09 0.06 0.01 0.00 0.01 0.02 0.03 0.03 0.03
0.04 0.02 0.03 0.03 0.02 0.01 0.00 0.01 0.01 0.01 0.01 0.01 0.02 0.02 0.01 0.02 0.02 0.02 0.01 0.01 0.01 0.00 0.00 0.01 0.01 0.00 0.00 0.00 0.00 0.00 0.00 0.01 0.04 0.04 0.04 0.03 0.01 0.01 0.02 0.02 0.03 0.03 0.04
0.07 0.08 0.05 0.07 0.08 0.08 0.05 0.03 0.03 0.02 0.02 0.02 0.04 0.03 0.03 0.07 0.08 0.06 0.06 0.03 0.02 0.01 0.01 0.01 0.01 0.00 0.00 0.00 0.01 0.01 0.00 0.01 0.04 0.03 0.02 0.03 0.02 0.01 0.02 0.03 0.03 0.03 0.04
0.06 0.13 0.10 0.09 0.16 0.20 0.14 0.12 0.13 0.11 0.11 0.11 0.12 0.11 0.10 0.14 0.11 0.09 0.10 0.06 0.04 0.03 0.04 0.03 0.01 0.01 0.01 0.01 0.01 0.01 0.01 0.03 0.03 0.03 0.02 0.02 0.02 0.02 0.02 0.04 0.03 0.04 0.05
0.07 0.11 0.17 0.19 0.19 0.23 0.30 0.30 0.37 0.33 0.28 0.24 0.25 0.21 0.21 0.24 0.19 0.20 0.21 0.14 0.11 0.09 0.10 0.09 0.06 0.03 0.02 0.01 0.00 0.01 0.02 0.02 0.02 0.03 0.03 0.02 0.02 0.02 0.02 0.04 0.04 0.05 0.06
0.09 0.14 0.19 0.24 0.25 0.27 0.35 0.35 0.38 0.39 0.32 0.27 0.26 0.28 0.33 0.35 0.31 0.30 0.26 0.28 0.19 0.13 0.10 0.08 0.06 0.05 0.05 0.03 0.02 0.02 0.02 0.03 0.02 0.03 0.04 0.03 0.01 0.01 0.02 0.03 0.04 0.04 0.05
0.13 0.18 0.23 0.26 0.30 0.29 0.30 0.30 0.31 0.30 0.28 0.29 0.31 0.26 0.28 0.32 0.40 0.44 0.39 0.32 0.25 0.18 0.13 0.09 0.07 0.06 0.06 0.05 0.04 0.05 0.03 0.03 0.04 0.06 0.08 0.06 0.03 0.01 0.02 0.02 0.02 0.03 0.05
0.18 0.30 0.37 0.29 0.35 0.36 0.29 0.23 0.19 0.19 0.25 0.28 0.37 0.41 0.34 0.30 0.38 0.45 0.47 0.40 0.32 0.24 0.19 0.14 0.11 0.10 0.08 0.08 0.07 0.06 0.05 0.05 0.05 0.05 0.07 0.08 0.08 0.05 0.02 0.01 0.02 0.03 0.04
0.17 0.22 0.30 0.25 0.28 0.37 0.37 0.28 0.23 0.21 0.24 0.26 0.28 0.36 0.40 0.36 0.33 0.37 0.39 0.34 0.28 0.22 0.22 0.19 0.15 0.13 0.11 0.10 0.10 0.08 0.09 0.08 0.06 0.06 0.07 0.08 0.09 0.07 0.04 0.03 0.03 0.03 0.03
0.17 0.21 0.27 0.28 0.30 0.35 0.38 0.39 0.40 0.39 0.36 0.33 0.30 0.30 0.33 0.38 0.35 0.32 0.34 0.30 0.24 0.22 0.20 0.15 0.16 0.16 0.16 0.15 0.11 0.10 0.10 0.09 0.08 0.06 0.06 0.06 0.06 0.06 0.06 0.05 0.03 0.03 0.04
0.16 0.19 0.22 0.29 0.33 0.33 0.34 0.37 0.39 0.40 0.39 0.40 0.40 0.36 0.31 0.31 0.35 0.32 0.36 0.36 0.30 0.26 0.24 0.21 0.21 0.17 0.15 0.13 0.10 0.11 0.12 0.09 0.08 0.07 0.09 0.07 0.05 0.03 0.04 0.06 0.05 0.04 0.03
0.14 0.19 0.22 0.24 0.29 0.32 0.31 0.28 0.29 0.31 0.31 0.35 0.38 0.34 0.29 0.25 0.27 0.30 0.30 0.33 0.28 0.23 0.20 0.21 0.21 0.19 0.15 0.12 0.14 0.14 0.11 0.10 0.09 0.09 0.08 0.07 0.05 0.04 0.04 0.05 0.05 0.04 0.04
0.09 0.14 0.20 0.20 0.24 0.27 0.26 0.27 0.29 0.32 0.34 0.33 0.32 0.31 0.25 0.22 0.26 0.31 0.30 0.29 0.28 0.26 0.21 0.19 0.19 0.19 0.15 0.11 0.12 0.14 0.12 0.10 0.09 0.08 0.07 0.06 0.05 0.04 0.04 0.04 0.04 0.04 0.04
0.08 0.10 0.13 0.15 0.16 0.19 0.24 0.27 0.30 0.31 0.28 0.24 0.19 0.18 0.18 0.17 0.20 0.25 0.26 0.26 0.25 0.27 0.29 0.25 0.21 0.17 0.14 0.11 0.13 0.17 0.17 0.14 0.10 0.08 0.05 0.05 0.04 0.04 0.04 0.05 0.04 0.04 0.04
0.07 0.07 0.09 0.12 0.14 0.17 0.20 0.22 0.21 0.22 0.21 0.18 0.15 0.14 0.13 0.13 0.14 0.17 0.18 0.17 0.17 0.18 0.21 0.23 0.23 0.21 0.17 0.13 0.11 0.12 0.12 0.13 0.11 0.08 0.05 0.04 0.03 0.04 0.04 0.04 0.04 0.04 0.05
0.07 0.07 0.08 0.09 0.10 0.11 0.15 0.17 0.15 0.14 0.14 0.13 0.12 0.13 0.15 0.15 0.14 0.15 0.14 0.12 0.12 0.13 0.14 0.15 0.16 0.18 0.17 0.13 0.10 0.08 0.06 0.08 0.09 0.07 0.05 0.04 0.03 0.03 0.04 0.04 0.03 0.03 0.03
0.07 0.07 0.09 0.11 0.12 0.12 0.15 0.16 0.13 0.11 0.11 0.10 0.10 0.12 0.14 0.17 0.19 0.20 0.19 0.16 0.15 0.17 0.16 0.14 0.13 0.13 0.13 0.12 0.09 0.06 0.06 0.06 0.06 0.05 0.05 0.04 0.04 0.04 0.04 0.04 0.05 0.05 0.05
MSLP
1007.72 1007.90 1008.27 1008.80 1009.43 1010.07 1010.65 1011.12 1011.47 1011.73 1011.92 1012.12 1012.35 1012.65 1013.02 1013.42 1013.81 1014.17 1014.47 1014.69 1014.85 1014.98 1015.11 1015.26 1015.44 1015.64 1015.84 1016.00 1016.12 1016.18 1016.21 1016.21 1016.24 1016.31 1016.44 1016.63 1016.86 1017.11 1017.35 1017.57 1017.74 1017.87 1017.98
1007.63 1007.89 1008.33 1008.90 1009.53 1010.15 1010.69 1011.12 1011.45 1011.71 1011.94 1012.20 1012.52 1012.92 1013.37 1013.83 1014.25 1014.60 1014.85 1015.01 1015.11 1015.18 1015.27 1015.39 1015.56 1015.76 1015.96 1016.13 1016.25 1016.31 1016.33 1016.33 1016.36 1016.44 1016.59 1016.81 1017.08 1017.36 1017.63 1017.87 1018.05 1018.20 1018.31
1007.38 1007.71 1008.21 1008.81 1009.45 1010.07 1010.60 1011.02 1011.36 1011.65 1011.94 1012.28 1012.69 1013.17 1013.68 1014.17 1014.59 1014.91 1015.11 1015.21 1015.25 1015.28 1015.34 1015.46 1015.64 1015.85 1016.06 1016.24 1016.35 1016.40 1016.40 1016.39 1016.41 1016.49 1016.65 1016.89 1017.19 1017.50 1017.81 1018.07 1018.29 1018.46 1018.59
1007.00 1007.41 1007.96 1008.61 1009.28 1009.90 1010.44 1010.88 1011.25 1011.59 1011.95 1012.37 1012.85 1013.39 1013.93 1014.42 1014.82 1015.09 1015.24 1015.29 1015.30 1015.32 1015.39 1015.53 1015.74 1015.97 1016.20 1016.37 1016.47 1016.49 1016.47 1016.43 1016.42 1016.49 1016.65 1016.90 1017.21 1017.55 1017.89 1018.19 1018.44 1018.65 1018.82
1006.59 1007.08 1007.70 1008.40 1009.10 1009.74 1010.31 1010.78 1011.19 1011.57 1011.99 1012.46 1012.99 1013.55 1014.09 1014.57 1014.93 1015.17 1015.28 1015.31 1015.32 1015.36 1015.47 1015.65 1015.90 1016.16 1016.40 1016.57 1016.64 1016.63 1016.56 1016.48 1016.45 1016.49 1016.64 1016.88 1017.20 1017.55 1017.90 1018.23 1018.52 1018.76 1018.97
1006.24 1006.82 1007.52 1008.28 1009.02 1009.70 1010.29 1010.79 1011.22 1011.64 1012.08 1012.57 1013.11 1013.66 1014.18 1014.63 1014.96 1015.16 1015.27 1015.31 1015.35 1015.44 1015.60 1015.84 1016.14 1016.43 1016.67 1016.82 1016.86 1016.80 1016.69 1016.57 1016.50 1016.52 1016.64 1016.87 1017.18 1017.53 1017.89 1018.23 1018.53 1018.81 1019.06
1006.01 1006.70 1007.48 1008.31 1009.11 1009.82 1010.43 1010.93 1011.37 1011.79 1012.22 1012.70 1013.21 1013.73 1014.21 1014.62 1014.92 1015.12 1015.23 1015.31 1015.41 1015.56 1015.80 1016.09 1016.42 1016.73 1016.96 1017.08 1017.08 1016.97 1016.82 1016.66 1016.56 1016.56 1016.67 1016.89 1017.19 1017.52 1017.87 1018.20 1018.51 1018.80 1019.08
1005.93 1006.72 1007.60 1008.50 1009.35 1010.09 1010.70 1011.20 1011.61 1012.00 1012.40 1012.83 1013.29 1013.76 1014.20 1014.57 1014.85 1015.05 1015.20 1015.33 1015.49 1015.71 1016.00 1016.34 1016.68 1016.98 1017.18 1017.26 1017.22 1017.08 1016.89 1016.72 1016.61 1016.61 1016.72 1016.93 1017.22 1017.54 1017.86 1018.18 1018.47 1018.74 1019.02
1005.95 1006.83 1007.80 1008.76 1009.64 1010.39 1011.00 1011.48 1011.86 1012.20 1012.55 1012.92 1013.33 1013.75 1014.14 1014.49 1014.77 1014.98 1015.16 1015.35 1015.56 1015.83 1016.15 1016.50 1016.84 1017.10 1017.27 1017.30 1017.22 1017.05 1016.86 1016.69 1016.61 1016.63 1016.77 1016.99 1017.27 1017.58 1017.88 1018.16 1018.41 1018.65 1018.90
1005.96 1006.92 1007.94 1008.94 1009.84 1010.60 1011.19 1011.64 1011.99 1012.29 1012.60 1012.93 1013.29 1013.67 1014.04 1014.37 1014.66 1014.91 1015.12 1015.34 1015.59 1015.88 1016.20 1016.53 1016.83 1017.04 1017.15 1017.14 1017.03 1016.87 1016.70 1016.57 1016.53 1016.61 1016.79 1017.04 1017.34 1017.64 1017.91 1018.15 1018.36 1018.55 1018.75
1005.89 1006.88 1007.92 1008.92 1009.81 1010.55 1011.12 1011.55 1011.89 1012.17 1012.46 1012.78 1013.13 1013.50 1013.88 1014.22 1014.53 1014.80 1015.05 1015.30 1015.56 1015.84 1016.13 1016.41 1016.64 1016.79 1016.85 1016.81 1016.69 1016.55 1016.43 1016.37 1016.41 1016.56 1016.80 1017.09 1017.41 1017.71 1017.96 1018.16 1018.32 1018.45 1018.58
1005.65 1006.62 1007.63 1008.60 1009.46 1010.16 1010.72 1011.14 1011.48 1011.78 1012.09 1012.44 1012.82 1013.22 1013.63 1014.01 1014.36 1014.66 1014.93 1015.19 1015.44 1015.69 1015.93 1016.14 1016.31 1016.40 1016.42 1016.37 1016.28 1016.18 1016.13 1016.16 1016.29 1016.52 1016.82 1017.16 1017.50 1017.80 1018.04 1018.20 1018.31 1018.37 1018.44
1005.26 1006.15 1007.08 1007.97 1008.76 1009.43 1009.97 1010.41 1010.78 1011.13 1011.51 1011.92 1012.36 1012.83 1013.30 1013.73 1014.13 1014.47 1014.76 1015.02 1015.24 1015.45 1015.64 1015.79 1015.90 1015.96 1015.96 1015.93 1015.89 1015.87 1015.91 1016.04 1016.25 1016.56 1016.91 1017.29 1017.64 1017.94 1018.15 1018.28 1018.34 1018.36 1018.36
1004.78 1005.55 1006.35 1007.13 1007.83 1008.45 1008.98 1009.44 1009.87 1010.31 1010.77 1011.27 1011.80 1012.35 1012.89 1013.39 1013.84 1014.21 1014.53 1014.78 1014.99 1015.17 1015.32 1015.43 1015.51 1015.57 1015.60 1015.62 1015.66 1015.73 1015.87 1016.09 1016.38 1016.74 1017.13 1017.51 1017.85 1018.13 1018.32 1018.42 1018.45 1018.43 1018.38
1004.35 1004.96 1005.60 1006.24 1006.85 1007.41 1007.93 1008.43 1008.93 1009.45 1010.01 1010.61 1011.23 1011.85 1012.46 1013.02 1013.50 1013.92 1014.25 1014.51 1014.72 1014.88 1015.01 1015.12 1015.21 1015.30 1015.40 1015.51 1015.65 1015.84 1016.08 1016.38 1016.73 1017.11 1017.50 1017.86 1018.16 1018.40 1018.56 1018.64 1018.65 1018.60 1018.54
1004.13 1004.56 1005.04 1005.53 1006.04 1006.55 1007.07 1007.60 1008.16 1008.77 1009.40 1010.07 1010.75 1011.42 1012.07 1012.65 1013.17 1013.60 1013.95 1014.23 1014.44 1014.62 1014.77 1014.91 1015.05 1015.21 1015.41 1015.63 1015.89 1016.20 1016.54 1016.91 1017.29 1017.67 1018.02 1018.33 1018.58 1018.76 1018.88 1018.93 1018.93 1018.89 1018.83
1004.25 1004.51 1004.83 1005.19 1005.60 1006.06 1006.57 1007.14 1007.75 1008.40 1009.07 1009.77 1010.47 1011.15 1011.79 1012.37 1012.89 1013.33 1013.69 1013.98 1014.22 1014.42 1014.61 1014.81 1015.03 1015.29 1015.60 1015.95 1016.34 1016.75 1017.18 1017.60 1018.00 1018.35 1018.65 1018.89 1019.07 1019.19 1019.26 1019.30 1019.30 1019.29 1019.25
1004.78 1004.89 1005.06 1005.30 1005.64 1006.06 1006.57 1007.14 1007.77 1008.44 1009.12 1009.80 1010.46 1011.10 1011.69 1012.24 1012.72 1013.15 1013.51 1013.82 1014.09 1014.33 1014.57 1014.84 1015.14 1015.49 1015.91 1016.38 1016.88 1017.40 1017.90 1018.36 1018.76 1019.08 1019.32 1019.49 1019.60 1019.66 1019.70 1019.72 1019.75 1019.77 1019.78
1005.69 1005.67 1005.72 1005.87 1006.14 1006.54 1007.04 1007.62 1008.25 1008.90 1009.54 1010.17 1010.76 1011.31 1011.83 1012.31 1012.75 1013.14 1013.50 1013.81 1014.10 1014.38 1014.66 1014.98 1015.34 1015.78 1016.28 1016.84 1017.43 1018.02 1018.58 1019.07 1019.46 1019.76 1019.95 1020.06 1020.11 1020.13 1020.15 1020.18 1020.23 1020.30 1020.37
1006.87 1006.74 1006.70 1006.78 1007.01 1007.38 1007.87 1008.45 1009.06 1009.68 1010.27 1010.82 1011.32 1011.78 1012.21 1012.62 1013.00 1013.36 1013.70 1014.01 1014.31 1014.60 1014.90 1015.24 1015.64 1016.11 1016.65 1017.26 1017.90 1018.53 1019.12 1019.62 1020.02 1020.29 1020.46 1020.54 1020.56 1020.57 1020.59 1020.64 1020.73 1020.85 1020.98
1008.16 1007.95 1007.83 1007.85 1008.04 1008.40 1008.88 1009.45 1010.05 1010.64 1011.18 1011.66 1012.08 1012.46 1012.82 1013.16 1013.50 1013.83 1014.15 1014.45 1014.74 1015.02 1015.31 1015.64 1016.02 1016.48 1017.01 1017.61 1018.25 1018.89 1019.48 1019.99 1020.39 1020.66 1020.82 1020.90 1020.93 1020.95 1020.99 1021.08 1021.21 1021.38 1021.56
1009.41 1009.12 1008.93 1008.91 1009.07 1009.41 1009.89 1010.45 1011.04 1011.60 1012.12 1012.56 1012.94 1013.28 1013.60 1013.91 1014.22 1014.54 1014.85 1015.14 1015.41 1015.66 1015.91 1016.19 1016.51 1016.90 1017.38 1017.92 1018.51 1019.11 1019.68 1020.18 1020.57 1020.85 1021.03 1021.13 1021.20 1021.25 1021.34 1021.47 1021.65 1021.87 1022.09
1010.50 1010.15 1009.90 1009.83 1009.96 1010.27 1010.73 1011.29 1011.88 1012.45 1012.97 1013.41 1013.80 1014.15 1014.48 1014.80 1015.13 1015.45 1015.76 1016.04 1016.28 1016.49 1016.68 1016.87 1017.11 1017.40 1017.77 1018.22 1018.72 1019.26 1019.77 1020.24 1020.62 1020.91 1021.12 1021.26 1021.37 1021.48 1021.61 1021.79 1022.01 1022.26 1022.51
1011.41 1011.00 1010.70 1010.58 1010.66 1010.95 1011.39 1011.94 1012.53 1013.12 1013.67 1014.16 1014.60 1015.00 1015.38 1015.76 1016.13 1016.48 1016.80 1017.07 1017.28 1017.44 1017.56 1017.67 1017.80 1017.98 1018.23 1018.56 1018.96 1019.39 1019.84 1020.25 1020.61 1020.90 1021.13 1021.31 1021.46 1021.62 1021.81 1022.02 1022.27 1022.54 1022.79
1012.19 1011.75 1011.41 1011.24 1011.28 1011.51 1011.92 1012.45 1013.05 1013.66 1014.25 1014.81 1015.33 1015.81 1016.27 1016.71 1017.13 1017.52 1017.85 1018.12 1018.31 1018.42 1018.48 1018.51 1018.54 1018.61 1018.75 1018.97 1019.25 1019.59 1019.94 1020.29 1020.60 1020.88 1021.11 1021.31 1021.50 1021.70 1021.92 1022.16 1022.42 1022.69 1022.93
1012.97 1012.53 1012.17 1011.96 1011.93 1012.11 1012.46 1012.96 1013.54 1014.16 1014.79 1015.41 1015.99 1016.55 1017.09 1017.59 1018.06 1018.47 1018.82 1019.08 1019.24 1019.32 1019.33 1019.30 1019.27 1019.27 1019.32 1019.44 1019.62 1019.86 1020.12 1020.40 1020.65 1020.89 1021.11 1021.31 1021.51 1021.72 1021.96 1022.20 1022.46 1022.71 1022.93
Thickness
5824 5818 5810 5808 5805 5801 5797 5795 5792 5789 5786 5784 5781 5779 5777 5775 5773 5771 5769 5767 5765 5763 5762 5760 5758 5757 5756 5755 5754 5753 5752 5751 5750 5749 5748 5746 5744 5742 5741 5740 5739 5737 5734
5827 5816 5809 5806 5803 5799 5795 5792 5790 5787 5784 5781 5778 5776 5774 5772 5769 5767 5766 5764 5762 5760 5759 5757 5756 5754 5753 5752 5751 5751 5750 5749 5748 5747 5746 5744 5742 5740 5738 5738 5738 5734 5732
5824 5814 5807 5804 5801 5797 5793 5790 5787 5784 5781 5778 5776 5773 5771 5769 5767 5765 5763 5761 5759 5758 5756 5755 5753 5752 5751 5750 5749 5748 5748 5747 5746 5745 5744 5743 5740 5737 5736 5735 5734 5732 5730
5820 5812 5807 5801 5798 5795 5791 5788 5784 5781 5778 5776 5773 5770 5768 5766 5764 5762 5760 5758 5756 5755 5753 5752 5751 5749 5748 5747 5747 5746 5746 5745 5744 5744 5744 5743 5740 5736 5734 5732 5731 5729 5727
5817 5811 5805 5800 5796 5792 5789 5785 5782 5778 5775 5773 5770 5767 5765 5763 5761 5759 5757 5755 5754 5752 5751 5750 5748 5747 5746 5745 5745 5744 5744 5744 5744 5744 5745 5743 5739 5735 5732 5731 5729 5727 5725
5814 5809 5801 5797 5794 5790 5786 5782 5779 5776 5772 5770 5767 5764 5762 5760 5758 5756 5754 5753 5751 5750 5748 5747 5746 5745 5744 5743 5743 5743 5743 5743 5743 5744 5745 5743 5738 5734 5731 5729 5727 5725 5723
5813 5807 5797 5794 5790 5787 5783 5779 5776 5772 5769 5766 5764 5761 5759 5757 5755 5753 5752 5750 5749 5747 5746 5745 5744 5743 5742 5741 5741 5741 5741 5741 5743 5745 5745 5742 5737 5733 5730 5728 5726 5724 5722
5812 5805 5794 5789 5786 5782 5779 5776 5773 5769 5766 5763 5761 5758 5756 5754 5752 5750 5749 5747 5746 5745 5743 5742 5741 5740 5740 5740 5739 5740 5740 5740 5743 5745 5743 5740 5736 5733 5730 5727 5725 5722 5720
5811 5802 5791 5785 5781 5778 5775 5772 5769 5766 5763 5760 5758 5755 5753 5751 5749 5747 5745 5744 5743 5742 5741 5740 5739 5738 5738 5738 5738 5738 5739 5739 5741 5742 5741 5737 5735 5732 5729 5726 5724 5721 5719
5806 5799 5790 5784 5779 5774 5770 5767 5765 5762 5759 5757 5754 5752 5749 5748 5746 5744 5743 5742 5741 5740 5739 5738 5737 5736 5736 5736 5736 5737 5737 5738 5740 5741 5737 5734 5733 5731 5728 5725 5723 5721 5718
5798 5793 5789 5783 5778 5773 5768 5764 5761 5758 5755 5753 5750 5748 5746 5745 5745 5743 5742 5740 5738 5737 5736 5736 5735 5735 5734 5735 5735 5735 5736 5737 5740 5739 5736 5733 5732 5730 5727 5724 5721 5719 5717
5789 5785 5785 5781 5775 5771 5767 5761 5757 5754 5751 5750 5748 5745 5744 5745 5744 5743 5740 5737 5736 5735 5734 5734 5733 5733 5733 5734 5734 5734 5735 5737 5739 5737 5735 5732 5731 5728 5725 5723 5720 5718 5716
5788 5782 5779 5778 5773 5769 5765 5758 5755 5751 5748 5746 5745 5743 5742 5742 5742 5740 5737 5734 5733 5732 5732 5732 5731 5732 5733 5735 5735 5734 5734 5736 5737 5736 5732 5730 5728 5726 5723 5721 5718 5716 5714
5781 5777 5773 5773 5768 5765 5761 5756 5752 5750 5746 5745 5743 5741 5740 5739 5738 5737 5735 5732 5731 5731 5731 5731 5732 5733 5734 5735 5735 5734 5734 5734 5734 5732 5728 5727 5724 5723 5721 5719 5716 5714 5712
5775 5773 5771 5768 5762 5759 5757 5753 5751 5749 5746 5744 5743 5740 5739 5737 5734 5733 5730 5729 5729 5729 5730 5731 5732 5733 5733 5733 5733 5733 5732 5731 5731 5728 5724 5722 5720 5719 5717 5715 5713 5711 5709
5768 5765 5764 5761 5757 5755 5753 5750 5748 5745 5743 5742 5740 5738 5735 5733 5730 5729 5727 5726 5726 5726 5727 5728 5730 5731 5730 5730 5729 5728 5727 5726 5725 5723 5720 5717 5715 5713 5712 5710 5709 5707 5706
5761 5759 5755 5754 5752 5748 5747 5747 5746 5743 5739 5738 5735 5733 5731 5730 5727 5725 5722 5722 5723 5724 5725 5726 5727 5727 5727 5725 5723 5723 5721 5720 5718 5717 5715 5712 5709 5707 5706 5704 5703 5702 5700
5752 5749 5747 5747 5745 5742 5741 5739 5740 5739 5735 5733 5731 5729 5728 5725 5723 5721 5721 5720 5719 5720 5721 5722 5722 5720 5720 5718 5717 5716 5715 5713 5711 5710 5709 5707 5704 5702 5699 5697 5696 5694 5693
5741 5740 5738 5736 5735 5734 5733 5732 5731 5731 5730 5728 5726 5725 5722 5721 5719 5718 5718 5717 5717 5718 5717 5717 5716 5715 5712 5711 5709 5708 5707 5705 5704 5702 5701 5699 5697 5695 5692 5690 5688 5686 5685
5730 5730 5729 5728 5728 5727 5726 5723 5721 5721 5720 5720 5718 5715 5714 5713 5713 5712 5711 5711 5711 5711 5710 5710 5708 5708 5706 5705 5703 5700 5698 5697 5696 5695 5693 5691 5689 5687 5684 5682 5679 5677 5676
5719 5718 5718 5718 5718 5719 5717 5713 5711 5710 5710 5709 5707 5706 5705 5704 5703 5703 5705 5704 5704 5703 5703 5703 5702 5700 5698 5698 5693 5689 5689 5689 5687 5685 5684 5682 5680 5678 5676 5673 5671 5669 5667
5707 5706 5707 5708 5708 5709 5708 5707 5706 5704 5702 5700 5698 5697 5696 5695 5695 5695 5696 5696 5697 5697 5697 5696 5695 5692 5691 5692 5689 5682 5677 5674 5675 5675 5674 5672 5671 5669 5667 5664 5662 5659 5658
5694 5695 5697 5698 5698 5698 5699 5699 5698 5697 5692 5690 5689 5688 5687 5686 5686 5686 5687 5688 5689 5689 5688 5688 5687 5686 5683 5684 5685 5681 5674 5669 5664 5662 5662 5661 5660 5658 5656 5654 5652 5649 5647
5683 5686 5687 5688 5689 5690 5690 5690 5689 5686 5682 5680 5681 5679 5678 5677 5676 5677 5677 5678 5680 5680 5680 5680 5680 5680 5678 5675 5676 5676 5674 5671 5662 5653 5651 5650 5649 5647 5645 5644 5642 5639 5638
5673 5675 5676 5677 5679 5679 5681 5681 5681 5678 5675 5673 5672 5669 5668 5666 5665 5666 5665 5668 5669 5669 5669 5669 5670 5671 5670 5670 5668 5667 5665 5663 5661 5654 5645 5641 5639 5637 5636 5634 5632 5630 5628
5663 5665 5666 5666 5666 5668 5669 5669 5670 5668 5666 5663 5661 5658 5657 5655 5655 5655 5655 5657 5658 5658 5658 5659 5660 5660 5660 5660 5659 5657 5656 5653 5651 5649 5642 5636 5631 5628 5627 5625 5624 5621 5619